Home > Weather > Sherbrooke > Past weeks

Flag for Canada Past Weather in Sherbrooke, Quebec, Canada — Yesterday and Last 2 Weeks

Now
82 °F

Broken clouds.


Feels Like: 83 °F
Forecast: 60 / 80 °F
Wind: 15 mph from Southwest

Location: Sherbrooke

Current Time: May 30, 2016 at 4:33:27 PM

Latest Report: May 30, 2016 at 4:00 PM


Visibility: 9 mi

Pressure: 29.76 "Hg

Humidity: 51%

Dew Point: 63 °F

Location of SherbrookeLocation

Past Weather in Sherbrooke — Graph

°F

Sherbrooke Temperature Yesterday

Maximum temperature yesterday: 79 °F (at 3:00 PM)
Minimum temperature yesterday: 59 °F (at 2:00 AM)
Average temperature yesterday: 68 °F

High & Low Weather Summary for the Past Weeks

 TemperatureHumidityPressure
High86 °F (May 27, 4:00 PM)100% (May 19, 11:00 PM)30.22 "Hg (May 19, 11:00 PM)
Low32 °F (May 16, 12:04 AM)20% (May 26, 6:00 PM)29.54 "Hg (May 15, 3:00 PM)
Average57 °F70%29.99 "Hg
* Reported May 15 3:00 PM — May 30 3:00 PM, Sherbrooke, Weather by CustomWeather, © 2016

Note: Actual official high and low records may vary slightly from our data, if they occured in-between our weather recording intervals... More about our weather records

Advertising

Sherbrooke Weather History for the Previous 24 Hours

Scroll right to see more
 ConditionsComfort  
Time TempWeatherWind HumidityBarometerVisibility
3:00 PM
Mon, May 30
82 °FSunny.15 mph51%29.78 "Hg9 mi
2:00 PM81 °FSunny.13 mph54%29.79 "Hg9 mi
1:00 PM79 °FSunny.14 mph58%29.81 "Hg9 mi
12:00 PM75 °FSunny.9 mph69%29.84 "Hg9 mi
11:00 AM72 °FPartly sunny.7 mph78%29.88 "Hg9 mi
10:00 AM68 °FMostly cloudy.5 mph88%29.90 "Hg9 mi
9:00 AM64 °FOvercast.6 mph94%29.91 "Hg9 mi
8:53 AM64 °FMore clouds than sun.7 mph94%29.91 "Hg9 mi
8:00 AM64 °FFog.5 mph94%29.92 "Hg5 mi
7:55 AM64 °FFog.3 mph94%29.91 "Hg5 mi
7:00 AM63 °FOvercast.2 mph94%29.91 "Hg9 mi
6:00 AM61 °FLight rain. Fog.No wind100%29.93 "Hg4 mi
5:00 AM61 °FLight rain. Partly cloudy.5 mph100%29.94 "Hg8 mi
4:04 AM61 °FLight rain. Fog.3 mph100%29.94 "Hg5 mi
3:00 AM63 °FLight rain. Fog.No wind94%29.96 "Hg3 mi
2:00 AM61 °FFog.No wind100%29.97 "Hg3 mi
1:56 AM61 °FLight rain. Fog.No wind100%29.97 "Hg3 mi
1:00 AM63 °FLight rain. Mostly cloudy.6 mph94%29.97 "Hg9 mi
12:00 AM63 °FPassing clouds.No wind94%30.00 "Hg9 mi
11:00 PM
Sun, May 29
64 °FOvercast.3 mph88%30.01 "Hg9 mi
10:00 PM64 °FOvercast.9 mph88%30.00 "Hg9 mi
9:00 PM64 °FLight rain. Partly sunny.8 mph88%30.02 "Hg9 mi
8:00 PM64 °FLight rain. Cloudy.10 mph94%30.03 "Hg9 mi
7:04 PM66 °FLight rain. Cloudy.13 mph88%30.04 "Hg9 mi
6:57 PM66 °FThunderstorms. Fog.9 mph88%30.05 "Hg3 mi
6:00 PM72 °FBroken clouds.9 mph69%30.04 "Hg9 mi
5:00 PM73 °FPartly sunny.13 mph74%30.03 "Hg9 mi
4:00 PM73 °FLight rain. Broken clouds.6 mph83%30.05 "Hg9 mi
Weather by CustomWeather, © 2016

See weather overviewHow to use our weather pages